[[{"header":{"parameterUnit":"m.s-1","parameterCategory":1,"la1":30.2991,"la2":30.254,"lo1":-89.0895,"lo2":-89.0444,"dy":0.0017,"dx":0.0017,"nx":28,"ny":28,"refTime":"2025-06-07T09:00:00:Z","depth":0,"parameterNumber":2,"parameterNumberName":"U-component_of_WINDS"},"data":[0,0,0,0,0,0,0,0,0,0,0,0,0,0,0,0,0,0,0,0,0,0,0,0,0,0,0,0,0,0,0,0,0,0,0,0,0,0,0,0,0,0,0,0,0,0,0,0,0,0,0,0,0,0,0,0,0,0,4.9152,4.9152,0,4.9181,4.9181,4.9181,4.9129,4.9128,4.9126,4.9124,4.9154,4.9156,4.9158,0,0,0,0,0,0,0,0,0,0,0,0,0,4.9054,4.9056,4.9152,4.9153,4.9153,4.9181,4.9181,4.9181,4.913,4.9128,4.9126,4.9124,4.9153,4.9156,4.9159,0,0,0,0,0,0,0,0,0,0,0,0,0,4.9091,4.9057,4.9152,4.913,4.9129,4.9181,4.9181,4.9181,4.913,4.9128,4.9125,4.9123,4.9152,4.9156,4.9159,4.9233,0,0,4.917,4.9172,0,0,0,0,0,0,0,0,4.9089,4.9095,4.9133,4.9132,4.913,4.9149,4.9157,4.9199,4.9131,4.913,4.9124,4.9121,4.9154,4.9157,4.9169,4.9235,4.9236,4.917,4.9173,4.9174,4.9175,0,0,0,0,0,0,0,4.9087,4.9093,4.9163,4.9134,4.9132,4.912,4.9122,4.9165,4.9156,4.913,4.9126,4.913,4.9153,4.9165,4.9169,4.9236,4.917,4.9173,4.9176,4.9177,4.9366,4.9369,0,0,0,0,0,0,4.9087,4.9092,4.9162,4.9164,4.9103,4.9124,4.9126,4.9146,4.9156,4.9155,4.9132,4.9127,4.916,4.9165,4.917,4.9258,4.9174,4.9177,4.9179,4.9363,4.9367,4.937,0,0,0,0,0,0,4.9085,4.9094,4.9161,4.9127,4.9135,4.9128,4.915,4.9147,4.916,4.9158,4.9156,4.9146,4.9158,4.9165,4.9218,4.9258,4.9179,4.9182,4.936,4.9364,4.9368,4.9434,0,0,0,0,0,0,4.9082,4.9093,4.9121,4.9128,4.9137,4.9209,4.9153,4.915,4.9166,4.916,4.917,4.9169,4.9157,4.9213,4.9222,4.9261,4.9185,4.9356,4.9362,4.9367,4.9428,4.944,4.945,0,0,0,0,0,4.9079,4.9138,4.9122,4.9131,4.9171,4.9211,4.9216,4.9201,4.9169,4.9197,4.9196,4.9169,4.9253,4.9219,4.9228,4.927,4.9354,4.936,4.9366,4.9423,4.9438,4.945,0,0,0,0,0,0,4.9135,4.9138,4.9121,4.9184,4.9198,4.9203,4.9237,4.9216,4.9239,4.9233,4.9212,4.9215,4.9273,4.9277,4.9239,4.9343,4.9298,4.9306,4.9338,4.9352,4.9362,4.936,4.9188,0,0,0,0,0,4.9155,4.9187,4.9188,4.9244,4.9252,4.9244,4.9261,4.9248,4.9261,4.9266,4.9269,4.9283,4.9313,4.9332,4.9359,4.9429,4.9431,4.9462,4.9473,4.9482,4.949,4.9528,4.9542,4.9391,4.9391,4.9391,0,0,4.9196,4.9202,4.9223,4.9255,4.9264,4.9299,4.9249,4.9287,4.9312,4.9272,4.9323,4.9326,4.934,4.9403,4.943,4.9407,4.9532,4.9491,4.9498,4.95,4.9536,4.955,4.9563,4.9395,4.9395,4.9394,0,0,4.9288,4.9296,4.9343,4.9354,4.9368,4.9363,4.9375,4.9383,4.9383,4.9434,4.9405,4.9435,4.9486,4.9498,4.9511,4.961,4.9586,4.962,4.9677,4.9714,4.9726,4.9736,4.9772,4.9785,4.9627,4.9628,4.9628,0,4.9337,4.9387,4.937,4.9411,4.9426,4.9392,4.9441,4.9452,4.9475,4.9486,4.9461,4.9525,4.9533,4.9598,4.9622,4.9633,4.9646,4.9618,4.9725,4.9736,4.9745,4.9779,4.9792,4.9631,4.9631,4.9631,4.963,0,4.9447,4.9483,4.9519,4.9543,4.9562,4.9607,4.9597,4.9619,4.9605,4.9603,4.9656,4.9664,4.9692,4.9707,4.9693,4.9771,4.9756,4.9729,4.9683,4.9764,4.9795,4.9808,4.9637,4.9636,4.9635,4.9634,0,0,4.9573,4.9588,4.9602,4.9613,4.9628,4.9655,4.9699,4.9727,4.9746,4.9764,4.98,4.9845,4.982,4.9835,4.9823,4.9855,4.9934,4.9824,4.9824,4.9844,5.002,5.0041,5.0056,4.9919,4.9921,4.9923,5.0019,0,4.9665,4.9739,4.9727,4.9799,4.9832,4.9802,4.984,4.9854,4.9853,4.9881,4.9881,4.9913,4.9878,4.9886,4.9918,4.9918,4.9969,4.9911,4.9952,4.9954,4.9949,5.0072,5.0093,5.0183,5.0031,5.0033,5.0035,0,4.9781,4.9804,4.988,4.9891,4.9904,4.9939,4.9964,4.9992,5.0007,5.0004,5.0022,5.0004,5.0048,5.0003,5.0064,5.0024,5.0041,5.0044,5.0047,5.005,4.9999,5.0078,5.0211,5.0225,5.0054,5.0052,5.0051,0,4.9866,4.9915,4.9968,4.9978,4.9992,5.0017,5.0024,5.0037,5.0055,5.0078,5.0089,5.0117,5.0132,5.0154,5.0144,5.0112,5.0207,5.0161,5.0207,5.0207,5.0227,5.0226,5.0365,5.0239,5.0239,5.0238,5.0238,0,4.9969,5.0017,5.0006,5.0038,5.0091,5.0076,5.013,5.0133,5.0145,5.0178,5.0153,5.0185,5.017,5.0201,5.0194,5.0245,5.0253,5.0252,5.0249,5.0254,5.0254,5.0263,5.0257,5.0242,5.0241,5.0241,5.024,0,5.0072,5.0067,5.0121,5.0131,5.0135,5.0173,5.0181,5.0212,5.021,5.0252,5.0261,5.0258,5.0293,5.0286,5.0324,5.032,5.0384,5.0374,5.0379,5.0377,5.0422,5.0418,5.0572,5.0591,5.0454,5.0455,5.0456,0,5.0138,5.0174,5.0188,5.0208,5.0217,5.025,5.0269,5.0257,5.0277,5.0299,5.0327,5.0359,5.0385,5.0442,5.0443,5.0473,5.0463,5.0515,5.0467,5.0471,5.0464,5.0461,5.0465,5.0524,5.0526,5.0527,5.0528,0,5.0255,5.0251,5.0279,5.0307,5.0331,5.0352,5.0371,5.0389,5.0378,5.0403,5.0438,5.0458,5.0498,5.0531,5.0558,5.0566,5.0546,5.0544,5.0555,5.056,5.0561,5.0561,5.0404,5.054,5.0538,5.0538,5.0537,5.0537,5.0341,5.0372,5.0387,5.042,5.0433,5.0452,5.0481,5.0484,5.0513,5.0544,5.0536,5.0576,5.0592,5.0627,5.0638,5.067,5.065,5.0668,5.0672,5.0676,5.0682,5.0557,5.0675,5.0675,5.0674,5.0674,5.0674,0,5.0457,5.0466,5.0496,5.0524,5.055,5.0529,5.055,5.0573,5.0608,5.0625,5.0651,5.0692,5.0725,5.073,5.0761,5.0785,5.0777,5.0794,5.0791,5.0793,5.0698,5.0684,5.08,5.08,5.08,5.08,5.08,5.08,5.0521,5.0572,5.0571,5.0629,5.0637,5.0677,5.069,5.0708,5.0721,5.0768,5.0795,5.0799,5.0811,5.0843,5.0872,5.0872,5.0885,5.0905,5.0902,5.0813,5.08,5.0788,5.0775,5.0908,5.0908,5.0995,5.0996,5.0997]},{"header":{"parameterUnit":"m.s-1","parameterCategory":1,"la1":30.2991,"la2":30.254,"lo1":-89.0895,"lo2":-89.0444,"dy":0.0017,"dx":0.0017,"nx":28,"ny":28,"refTime":"2025-06-07T09:00:00:Z","depth":0,"parameterNumber":3,"parameterNumberName":"V-component_of_WINDS"},"data":[0,0,0,0,0,0,0,0,0,0,0,0,0,0,0,0,0,0,0,0,0,0,0,0,0,0,0,0,0,0,0,0,0,0,0,0,0,0,0,0,0,0,0,0,0,0,0,0,0,0,0,0,0,0,0,0,0,0,0.3731,0.373,0,0.3662,0.3661,0.366,0.3606,0.3606,0.3605,0.3605,0.3533,0.3532,0.353,0,0,0,0,0,0,0,0,0,0,0,0,0,0.3814,0.3813,0.3731,0.373,0.3729,0.3662,0.3661,0.366,0.3606,0.3606,0.3605,0.3604,0.3534,0.3532,0.353,0,0,0,0,0,0,0,0,0,0,0,0,0,0.3765,0.3812,0.3731,0.3694,0.369,0.3662,0.3661,0.366,0.3606,0.3606,0.3605,0.3604,0.3534,0.3532,0.353,0.3532,0,0,0.3524,0.3523,0,0,0,0,0,0,0,0,0.3768,0.3762,0.37,0.3697,0.3692,0.3642,0.3664,0.3617,0.3607,0.3638,0.3605,0.3604,0.357,0.3565,0.3554,0.3529,0.3526,0.3523,0.3522,0.3521,0.3521,0,0,0,0,0,0,0,0.3771,0.3764,0.3703,0.37,0.3695,0.368,0.3673,0.3655,0.3609,0.3635,0.3631,0.3624,0.3567,0.3556,0.3551,0.3525,0.3523,0.3521,0.352,0.3519,0.3497,0.3497,0,0,0,0,0,0,0.378,0.3768,0.3706,0.3701,0.3729,0.368,0.3671,0.3659,0.3609,0.3601,0.3625,0.3622,0.356,0.3554,0.3549,0.3547,0.3521,0.3519,0.3518,0.3496,0.3497,0.3498,0,0,0,0,0,0,0.3782,0.3775,0.3708,0.3733,0.3724,0.3679,0.3666,0.3658,0.3646,0.3601,0.3593,0.3621,0.3559,0.3552,0.3536,0.3544,0.3518,0.3516,0.3495,0.3496,0.3497,0.3545,0,0,0,0,0,0,0.3785,0.3776,0.3778,0.3734,0.3723,0.3698,0.3666,0.3657,0.3643,0.3638,0.3596,0.3588,0.3558,0.354,0.3534,0.354,0.3515,0.3494,0.3496,0.3497,0.3542,0.3547,0.3551,0,0,0,0,0,0.3788,0.3794,0.3778,0.3771,0.3723,0.3699,0.3692,0.3658,0.3643,0.3644,0.3614,0.3589,0.3544,0.3539,0.3532,0.3538,0.3494,0.3495,0.3497,0.354,0.3546,0.3551,0,0,0,0,0,0,0.384,0.3787,0.3769,0.3761,0.3735,0.369,0.3689,0.3666,0.3643,0.3639,0.3597,0.3588,0.3577,0.3555,0.3551,0.3536,0.3515,0.3516,0.3551,0.3556,0.356,0.3566,0.3513,0,0,0,0,0,0.385,0.3835,0.379,0.3787,0.3775,0.3734,0.3723,0.3698,0.3669,0.3658,0.3627,0.36,0.3579,0.3566,0.3545,0.3539,0.3528,0.3539,0.3543,0.3547,0.3548,0.3541,0.3545,0.3503,0.3503,0.3503,0,0,0.3872,0.3841,0.3834,0.3797,0.3774,0.3758,0.3725,0.3711,0.3699,0.3655,0.3639,0.3616,0.3582,0.3571,0.3564,0.3553,0.3557,0.3549,0.3553,0.3551,0.3543,0.3548,0.3551,0.3504,0.3504,0.3503,0,0,0.3903,0.3879,0.3873,0.385,0.3815,0.3788,0.3786,0.3744,0.3727,0.371,0.3677,0.3661,0.3627,0.3603,0.3587,0.3608,0.3583,0.3602,0.3626,0.362,0.3623,0.3626,0.3632,0.3635,0.3603,0.3603,0.3603,0,0.3934,0.391,0.3873,0.386,0.3844,0.3803,0.3796,0.3776,0.3736,0.3725,0.3713,0.3667,0.3642,0.3624,0.3629,0.3617,0.3613,0.3607,0.3626,0.3628,0.363,0.3635,0.3638,0.3605,0.3605,0.3605,0.3604,0,0.3949,0.3933,0.3932,0.3894,0.3878,0.3868,0.3829,0.3816,0.3793,0.3767,0.3749,0.3716,0.3687,0.3681,0.3658,0.3659,0.3653,0.3634,0.3612,0.3637,0.3641,0.3643,0.3609,0.3608,0.3607,0.3606,0,0,0.4011,0.3952,0.3952,0.3934,0.3892,0.3878,0.3866,0.3837,0.3827,0.38,0.3788,0.3759,0.374,0.3722,0.3696,0.369,0.3707,0.3671,0.367,0.3678,0.3704,0.3719,0.3722,0.369,0.369,0.3691,0.3707,0,0.4035,0.4011,0.3977,0.3964,0.3948,0.3908,0.3897,0.387,0.3844,0.3826,0.3798,0.3778,0.3755,0.3744,0.3737,0.3707,0.3711,0.3705,0.3677,0.3677,0.3687,0.3724,0.374,0.3757,0.3709,0.3709,0.3709,0,0.406,0.4035,0.4021,0.3978,0.397,0.3961,0.3931,0.3915,0.3882,0.3863,0.3842,0.3814,0.3797,0.3778,0.3754,0.375,0.3736,0.372,0.3719,0.3715,0.3694,0.3721,0.3762,0.3764,0.3711,0.3711,0.3711,0,0.4106,0.4069,0.4055,0.4041,0.3991,0.3985,0.3964,0.3931,0.3915,0.3888,0.3877,0.3849,0.3834,0.3812,0.3776,0.3766,0.3756,0.3733,0.3739,0.374,0.3739,0.3739,0.3778,0.3731,0.3731,0.3731,0.3731,0,0.4136,0.4128,0.4075,0.4066,0.4056,0.4016,0.4007,0.3982,0.3952,0.3937,0.3901,0.3888,0.3841,0.3822,0.3794,0.3777,0.3771,0.3755,0.3747,0.3758,0.376,0.3748,0.3746,0.3732,0.3732,0.3731,0.3731,0,0.4185,0.4149,0.4132,0.4086,0.4074,0.4068,0.4029,0.4018,0.399,0.3972,0.3965,0.3921,0.3896,0.3858,0.3822,0.3803,0.3791,0.3779,0.3803,0.3798,0.3805,0.3805,0.3837,0.3839,0.3792,0.3793,0.3793,0,0.4207,0.42,0.4153,0.4141,0.4121,0.4102,0.4085,0.4045,0.4029,0.399,0.3984,0.3957,0.3932,0.3895,0.3859,0.3831,0.3817,0.383,0.3813,0.3823,0.3816,0.3817,0.3815,0.3835,0.3835,0.3836,0.3836,0,0.4248,0.423,0.4208,0.418,0.4161,0.4137,0.411,0.4102,0.4056,0.4039,0.4014,0.3995,0.3958,0.393,0.3897,0.3874,0.3847,0.3842,0.3842,0.3852,0.3866,0.3857,0.3813,0.3842,0.3841,0.3841,0.384,0.384,0.4283,0.4275,0.424,0.4217,0.4192,0.4168,0.4156,0.4126,0.4104,0.4071,0.4048,0.4024,0.3989,0.3941,0.3919,0.3899,0.3887,0.3887,0.3887,0.3887,0.3891,0.3869,0.3893,0.3892,0.3892,0.3892,0.3892,0,0.4322,0.4297,0.4276,0.424,0.4221,0.4198,0.4167,0.4152,0.4131,0.4101,0.4078,0.4048,0.402,0.3982,0.3952,0.3942,0.3929,0.3936,0.3936,0.3931,0.3903,0.3906,0.3947,0.3947,0.3947,0.3947,0.3947,0.3947,0.434,0.4324,0.4302,0.4273,0.4248,0.4224,0.4208,0.4185,0.4161,0.4129,0.4106,0.4081,0.4047,0.4014,0.3988,0.3977,0.3967,0.3977,0.3963,0.3938,0.3933,0.3928,0.393,0.3976,0.3976,0.3992,0.3992,0.3992]}]]